Starlink 3297

operational
NORAD ID: 50159 Int'l Des: 2021-125 Owner: SPXS Country: US Constellation: starlink
LEOCIRCULAR

Starlink 3297について

説明を読み込み中...

リアルタイム位置

3D地球を読み込み中...

次回通過

高度履歴

Altitude vs Time

uPlot chart will show altitude changes over time

軌道要素

1 50159U 21125D 25258.88785306 -.00000559 00000-0 -17018-4 0 9990
2 50159 53.2186 323.8482 0001284 89.2878 270.8262 15.08842335210069
Epoch: Sep 15, 2025 • Age: 18 hours

現在のステータス

高度 544.1 km
速度 7.60 km/s
衛星直下点 47.10°N, 137.98°W
打ち上げ日 Dec 18, 2021
運用期間 3.7 years
タイプ internet

技術仕様

分類 Payload
質量 290.00 kg
乾燥質量 270.00 kg
総質量 290.00 kg
長さ 0.20 m
直径 2.80 m
スパン 9.00 m
形状 Box + pan
製造者 SPXS
バスタイプ Starlink
フェーズステータス In Orbit
所有者/国 SPXS/US

大規模コンステレーション

Loading constellations...